sat.trackr.live / text

‹ back to catalog

STARLINK-32770

NORAD 62741 · 2025-014G

PAYLOAD ACTIVE UNKNOWN

§ Identity

Operator
Country
US
Launch date
2025-01-21
Launch site
AFETR
Launch vehicle
Mass (kg)
RCS (m²)

Purposes: comms

External: N2YO · Heavens-Above · Gunter

§ Orbital elements

Epoch: 2026-09-21T08:25:19.227072Z

Period
94.27 min
Inclination
43.0026°
Eccentricity
0.0001418
Mean motion
15.27583441 rev/d
Perigee alt
482.1 km
Apogee alt
484.0 km
Semi-major
6,861.2 km
B*
2.5412e-4
RAAN
129.1974°
Arg perigee
276.8473°
Mean anomaly
83.2217°
Rev number
9,318

§ Raw data

STARLINK-327701 62741U 25014G   26264.35091698  .00006738  00000+0  25412-3 0  99932 62741  43.0026 129.1974 0001418 276.8473  83.2217 15.27583441 93185

JSON: /api/v1/satellites/62741 · /tle

For live sub-satellite position, see the globe view (requires WebGL).

§ Visibility from observer

Set your observer location to see the next 7 days of passes ≥ 10°. The values pass through the URL so the page stays shareable.

No JS? Fill the form by hand. The geolocation button needs JavaScript.